�������l�o���
Date,Time,MP-1(��Sv/h),MP-2(��Sv/h),MP-3(��Sv/h),MP-4(��Sv/h),MP-5(��Sv/h),MP-6(��Sv/h),MP-7(��Sv/h),MP-8(��Sv/h),����,����(m/s),���J
2024/04/30,00:00,0.513,0.779,0.489,0.965,0.701,0.317,0.559,0.521,�k�k��,0.6,��
2024/04/30,00:10,0.513,0.780,0.490,0.967,0.702,0.316,0.558,0.521,-,CALM,��
2024/04/30,00:20,0.511,0.779,0.490,0.968,0.703,0.317,0.558,0.519,��,0.6,��
2024/04/30,00:30,0.512,0.780,0.489,0.965,0.699,0.317,0.558,0.519,��쓌,1.2,��
2024/04/30,00:40,0.513,0.781,0.489,0.966,0.702,0.317,0.557,0.520,��쓌,1.2,��
2024/04/30,00:50,0.514,0.780,0.490,0.967,0.702,0.318,0.557,0.521,-,CALM,��
2024/04/30,01:00,0.512,0.780,0.489,0.967,0.700,0.317,0.557,0.519,��,0.6,��
2024/04/30,01:10,0.510,0.781,0.490,0.966,0.701,0.318,0.556,0.521,�쓌,1.7,��
2024/04/30,01:20,0.513,0.779,0.489,0.967,0.700,0.319,0.556,0.520,��쓌,1.2,��
2024/04/30,01:30,0.512,0.778,0.492,0.966,0.702,0.317,0.557,0.520,��,2.0,��
2024/04/30,01:40,0.510,0.780,0.490,0.967,0.700,0.318,0.558,0.521,��,2.0,��
2024/04/30,01:50,0.512,0.779,0.491,0.965,0.700,0.318,0.558,0.519,��,2.0,��
2024/04/30,02:00,0.512,0.779,0.490,0.968,0.701,0.318,0.557,0.520,��,3.3,��
2024/04/30,02:10,0.511,0.782,0.490,0.965,0.701,0.319,0.556,0.520,��,3.9,�L
2024/04/30,02:20,0.513,0.780,0.490,0.969,0.702,0.317,0.556,0.519,��,4.7,�L
2024/04/30,02:30,0.513,0.778,0.489,0.967,0.701,0.317,0.558,0.520,��,6.5,�L
2024/04/30,02:40,0.513,0.779,0.491,0.965,0.701,0.317,0.557,0.521,��,7.5,�L
2024/04/30,02:50,0.514,0.780,0.489,0.967,0.701,0.317,0.556,0.519,��,6.0,�L
2024/04/30,03:00,0.512,0.778,0.491,0.969,0.701,0.319,0.558,0.519,��쓌,7.2,�L
2024/04/30,03:10,0.513,0.780,0.489,0.967,0.701,0.319,0.558,0.520,��,6.9,�L
2024/04/30,03:20,0.514,0.781,0.491,0.967,0.703,0.319,0.557,0.520,��,6.6,�L
2024/04/30,03:30,0.514,0.780,0.491,0.967,0.702,0.318,0.557,0.520,��,4.8,�L
2024/04/30,03:40,0.513,0.781,0.492,0.968,0.700,0.319,0.556,0.521,��,2.8,�L
2024/04/30,03:50,0.510,0.779,0.492,0.969,0.701,0.319,0.557,0.521,��쓌,1.9,�L
2024/04/30,04:00,0.512,0.781,0.491,0.970,0.701,0.319,0.555,0.520,��,7.1,�L
2024/04/30,04:10,0.512,0.779,0.492,0.967,0.701,0.320,0.554,0.521,��,7.1,�L
2024/04/30,04:20,0.512,0.778,0.492,0.968,0.699,0.318,0.555,0.518,��,7.4,�L
2024/04/30,04:30,0.513,0.778,0.492,0.968,0.696,0.318,0.554,0.519,��,7.6,�L
2024/04/30,04:40,0.510,0.776,0.490,0.968,0.696,0.320,0.553,0.518,��,7.0,�L
2024/04/30,04:50,0.511,0.775,0.490,0.967,0.696,0.317,0.554,0.519,��,6.6,�L
2024/04/30,05:00,0.509,0.775,0.490,0.965,0.697,0.317,0.554,0.519,��,6.9,�L
2024/04/30,05:10,0.509,0.775,0.489,0.968,0.696,0.316,0.554,0.519,��,5.2,�L
2024/04/30,05:20,0.510,0.775,0.488,0.966,0.696,0.315,0.556,0.519,��,4.3,�L
2024/04/30,05:30,0.511,0.778,0.488,0.963,0.696,0.318,0.555,0.518,��,4.3,�L
2024/04/30,05:40,0.510,0.777,0.489,0.965,0.697,0.317,0.555,0.519,��,6.8,�L
2024/04/30,05:50,0.510,0.776,0.488,0.965,0.695,0.316,0.555,0.519,��,7.6,��
2024/04/30,06:00,0.511,0.777,0.488,0.964,0.696,0.316,0.557,0.520,��,7.3,�L
2024/04/30,06:10,0.509,0.778,0.489,0.966,0.695,0.315,0.556,0.518,��,5.9,��
2024/04/30,06:20,0.509,0.777,0.487,0.966,0.695,0.315,0.555,0.519,��,5.2,��
2024/04/30,06:30,0.509,0.775,0.486,0.965,0.697,0.315,0.557,0.519,��,6.6,��
2024/04/30,06:40,0.510,0.774,0.487,0.965,0.696,0.316,0.556,0.519,��,6.9,��
2024/04/30,06:50,0.510,0.774,0.487,0.964,0.696,0.314,0.556,0.519,��,7.0,��
2024/04/30,07:00,0.508,0.775,0.487,0.965,0.697,0.315,0.557,0.519,��,5.7,��
2024/04/30,07:10,0.509,0.775,0.490,0.965,0.697,0.314,0.556,0.518,��,4.6,��
2024/04/30,07:20,0.508,0.774,0.488,0.965,0.696,0.316,0.555,0.519,��,5.2,��
2024/04/30,07:30,0.507,0.775,0.489,0.964,0.695,0.316,0.556,0.519,��,5.1,��
2024/04/30,07:40,0.508,0.773,0.488,0.964,0.697,0.315,0.556,0.517,��,5.8,�L
2024/04/30,07:50,0.507,0.772,0.486,0.964,0.695,0.316,0.555,0.519,��,5.9,�L
2024/04/30,08:00,0.509,0.774,0.487,0.964,0.697,0.315,0.555,0.517,��,5.6,�L
2024/04/30,08:10,0.508,0.774,0.488,0.964,0.693,0.314,0.555,0.516,��,5.9,��
2024/04/30,08:20,0.508,0.774,0.487,0.963,0.693,0.319,0.556,0.516,��,6.2,�L
2024/04/30,08:30,0.508,0.775,0.486,0.963,0.696,0.314,0.556,0.516,��,6.5,�L
2024/04/30,08:40,0.509,0.773,0.489,0.965,0.693,0.315,0.555,0.517,��,7.2,��
2024/04/30,08:50,0.507,0.773,0.487,0.965,0.696,0.315,0.555,0.516,��,6.4,��
2024/04/30,09:00,0.508,0.776,0.488,0.964,0.693,0.315,0.556,0.518,��,7.2,��
2024/04/30,09:10,0.509,0.774,0.489,0.965,0.696,0.316,0.556,0.518,��,6.7,��
2024/04/30,09:20,0.509,0.775,0.487,0.964,0.696,0.316,0.555,0.517,��,7.3,��
2024/04/30,09:30,0.507,0.775,0.487,0.964,0.695,0.315,0.557,0.518,��,8.0,��
2024/04/30,09:40,0.509,0.774,0.487,0.962,0.696,0.317,0.556,0.516,��,7.6,��
2024/04/30,09:50,0.509,0.775,0.486,0.965,0.694,0.316,0.555,0.516,��,9.3,��
2024/04/30,10:00,0.510,0.774,0.486,0.966,0.697,0.316,0.555,0.517,��,8.6,��
2024/04/30,10:10,0.512,0.776,0.487,0.966,0.697,0.315,0.557,0.516,��쓌,8.4,��
2024/04/30,10:20,0.512,0.775,0.487,0.964,0.695,0.315,0.557,0.516,��,9.4,��
2024/04/30,10:30,0.510,0.776,0.487,0.963,0.695,0.317,0.557,0.517,��쓌,10.2,��
2024/04/30,10:40,0.511,0.776,0.487,0.966,0.696,0.316,0.558,0.516,��,9.8,��
2024/04/30,10:50,0.510,0.775,0.489,0.966,0.696,0.317,0.556,0.518,��,9.7,��
2024/04/30,11:00,0.510,0.776,0.487,0.964,0.698,0.317,0.558,0.517,��,12.7,��
2024/04/30,11:10,0.510,0.777,0.487,0.964,0.697,0.318,0.556,0.517,��,11.4,��
2024/04/30,11:20,0.510,0.774,0.489,0.964,0.698,0.316,0.556,0.518,��,9.3,��
2024/04/30,11:30,0.511,0.778,0.487,0.964,0.700,0.314,0.556,0.518,��,12.7,��
2024/04/30,11:40,0.511,0.778,0.489,0.966,0.698,0.317,0.557,0.517,��,12.0,��
2024/04/30,11:50,0.509,0.777,0.488,0.963,0.697,0.317,0.557,0.518,��,10.9,�L
2024/04/30,12:00,0.511,0.777,0.488,0.966,0.698,0.317,0.555,0.519,��,10.0,�L
2024/04/30,12:10,0.511,0.778,0.487,0.964,0.700,0.317,0.556,0.518,��,9.7,��
2024/04/30,12:20,0.512,0.777,0.489,0.963,0.698,0.315,0.557,0.519,��,9.0,��
2024/04/30,12:30,0.511,0.777,0.486,0.965,0.700,0.317,0.556,0.518,��,7.1,��
2024/04/30,12:40,0.511,0.777,0.489,0.966,0.697,0.316,0.555,0.517,��,8.5,��
2024/04/30,12:50,0.512,0.778,0.488,0.963,0.698,0.318,0.557,0.517,��,8.2,��
2024/04/30,13:00,0.512,0.778,0.489,0.965,0.700,0.317,0.555,0.517,��,7.0,��
2024/04/30,13:10,0.511,0.779,0.488,0.965,0.699,0.318,0.554,0.517,��쓌,7.7,��
2024/04/30,13:20,0.511,0.777,0.488,0.967,0.700,0.318,0.555,0.517,��쓌,8.8,��
2024/04/30,13:30,0.512,0.778,0.488,0.967,0.699,0.316,0.556,0.518,��쓌,8.0,��
2024/04/30,13:40,0.512,0.778,0.489,0.966,0.699,0.317,0.554,0.518,��쓌,9.7,��
2024/04/30,13:50,0.513,0.779,0.489,0.966,0.698,0.316,0.555,0.520,��쓌,9.2,��
2024/04/30,14:00,0.511,0.777,0.489,0.966,0.699,0.317,0.554,0.516,��쓌,8.8,��
2024/04/30,14:10,0.511,0.777,0.487,0.966,0.700,0.315,0.555,0.517,��쓌,10.7,��
2024/04/30,14:20,0.512,0.775,0.490,0.969,0.699,0.317,0.555,0.519,��쓌,11.7,��
2024/04/30,14:30,0.512,0.776,0.488,0.968,0.700,0.316,0.554,0.518,��쓌,11.9,��
2024/04/30,14:40,0.511,0.778,0.489,0.966,0.699,0.318,0.555,0.518,��쓌,13.8,��
2024/04/30,14:50,0.513,0.779,0.488,0.968,0.700,0.317,0.556,0.520,��쓌,13.0,��
2024/04/30,15:00,0.511,0.776,0.489,0.967,0.701,0.318,0.555,0.519,��쓌,13.0,��
2024/04/30,15:10,0.510,0.778,0.489,0.968,0.701,0.317,0.556,0.519,��쓌,11.4,��
2024/04/30,15:20,0.513,0.780,0.488,0.968,0.699,0.318,0.555,0.517,��쓌,12.7,��
2024/04/30,15:30,0.512,0.777,0.489,0.967,0.700,0.318,0.554,0.518,��쓌,11.6,��
2024/04/30,15:40,0.512,0.780,0.489,0.969,0.701,0.318,0.554,0.518,��쓌,12.5,��
2024/04/30,15:50,0.511,0.779,0.489,0.967,0.701,0.317,0.555,0.518,��쓌,11.7,��
2024/04/30,16:00,0.513,0.778,0.491,0.968,0.698,0.318,0.555,0.519,��쓌,10.5,��
2024/04/30,16:10,0.512,0.779,0.491,0.968,0.702,0.318,0.554,0.519,��쓌,8.0,��
2024/04/30,16:20,0.512,0.778,0.489,0.967,0.702,0.317,0.556,0.519,��쓌,9.6,��
2024/04/30,16:30,0.512,0.777,0.490,0.967,0.699,0.318,0.556,0.519,��쓌,8.2,��
2024/04/30,16:40,0.513,0.779,0.490,0.967,0.701,0.317,0.553,0.518,��,8.0,��
2024/04/30,16:50,0.512,0.778,0.489,0.964,0.700,0.317,0.555,0.518,��쓌,7.5,��
2024/04/30,17:00,0.514,0.776,0.489,0.967,0.700,0.318,0.554,0.518,��,9.4,��
2024/04/30,17:10,0.512,0.777,0.488,0.968,0.703,0.317,0.556,0.520,��,8.4,��
2024/04/30,17:20,0.512,0.777,0.491,0.966,0.700,0.318,0.553,0.519,��,8.7,��
2024/04/30,17:30,0.513,0.777,0.491,0.969,0.700,0.317,0.554,0.519,��,7.3,��
2024/04/30,17:40,0.513,0.778,0.488,0.968,0.701,0.316,0.554,0.520,��,6.5,��
2024/04/30,17:50,0.513,0.779,0.490,0.969,0.701,0.317,0.554,0.519,��,7.3,��
2024/04/30,18:00,0.513,0.778,0.490,0.969,0.703,0.318,0.555,0.518,��,7.1,��
2024/04/30,18:10,0.511,0.778,0.489,0.969,0.701,0.318,0.555,0.519,��,7.2,��
2024/04/30,18:20,0.512,0.779,0.489,0.970,0.698,0.318,0.554,0.522,��,6.8,��
2024/04/30,18:30,0.512,0.779,0.488,0.971,0.701,0.319,0.554,0.521,��,6.9,��
2024/04/30,18:40,0.512,0.781,0.491,0.971,0.700,0.318,0.555,0.521,��쐼,5.4,��
2024/04/30,18:50,0.512,0.780,0.491,0.970,0.704,0.319,0.554,0.521,��쐼,3.5,��
2024/04/30,19:00,0.512,0.782,0.493,0.970,0.704,0.319,0.555,0.520,��쐼,2.9,��
2024/04/30,19:10,0.512,0.782,0.493,0.971,0.703,0.318,0.557,0.521,��쐼,2.6,��
2024/04/30,19:20,0.512,0.782,0.493,0.970,0.704,0.319,0.557,0.521,��쐼,2.6,��
2024/04/30,19:30,0.513,0.781,0.492,0.969,0.702,0.318,0.557,0.523,��쐼,3.4,��
2024/04/30,19:40,0.513,0.783,0.492,0.970,0.702,0.318,0.555,0.520,�쐼,1.7,��
2024/04/30,19:50,0.514,0.781,0.492,0.972,0.703,0.320,0.558,0.520,���k��,1.7,��
2024/04/30,20:00,0.514,0.782,0.492,0.969,0.702,0.320,0.558,0.520,���k��,2.5,��
2024/04/30,20:10,0.515,0.782,0.491,0.971,0.703,0.319,0.557,0.521,���k��,2.6,��
2024/04/30,20:20,0.514,0.781,0.492,0.970,0.703,0.321,0.558,0.520,�k��,3.8,��
2024/04/30,20:30,0.514,0.782,0.492,0.972,0.703,0.320,0.556,0.521,�k��,4.6,��
2024/04/30,20:40,0.513,0.781,0.493,0.971,0.703,0.319,0.557,0.522,�k��,4.4,��
2024/04/30,20:50,0.513,0.782,0.493,0.971,0.703,0.321,0.556,0.521,�k��,3.9,��
2024/04/30,21:00,0.514,0.779,0.491,0.972,0.703,0.319,0.556,0.522,�k��,4.9,��
2024/04/30,21:10,0.514,0.782,0.493,0.970,0.704,0.319,0.558,0.520,���k��,4.1,��
2024/04/30,21:20,0.515,0.781,0.492,0.972,0.705,0.320,0.557,0.521,�k��,3.6,��
2024/04/30,21:30,0.515,0.781,0.491,0.971,0.705,0.321,0.558,0.521,�k��,5.8,��
2024/04/30,21:40,0.514,0.783,0.493,0.972,0.704,0.320,0.557,0.520,�k��,5.3,��
2024/04/30,21:50,0.515,0.782,0.493,0.972,0.702,0.319,0.558,0.520,�k��,4.1,��
2024/04/30,22:00,0.515,0.781,0.493,0.971,0.705,0.320,0.556,0.519,�k��,2.8,��
2024/04/30,22:10,0.514,0.780,0.491,0.969,0.703,0.319,0.556,0.521,���k��,3.6,��
2024/04/30,22:20,0.513,0.781,0.491,0.972,0.704,0.319,0.556,0.521,��,3.3,��
2024/04/30,22:30,0.515,0.782,0.494,0.972,0.704,0.318,0.558,0.521,��,3.2,��
2024/04/30,22:40,0.513,0.781,0.492,0.972,0.702,0.318,0.557,0.522,���k��,3.6,��
2024/04/30,22:50,0.514,0.781,0.492,0.973,0.703,0.318,0.557,0.520,�k��,2.9,��
2024/04/30,23:00,0.516,0.781,0.491,0.973,0.703,0.319,0.557,0.521,���k��,3.5,��
2024/04/30,23:10,0.515,0.783,0.491,0.972,0.702,0.320,0.558,0.522,���k��,2.5,��
2024/04/30,23:20,0.514,0.781,0.492,0.971,0.704,0.319,0.556,0.521,�k��,2.8,��
2024/04/30,23:30,0.513,0.780,0.493,0.972,0.703,0.318,0.557,0.522,�k�k��,2.3,��
2024/04/30,23:40,0.516,0.780,0.491,0.972,0.703,0.319,0.557,0.520,�k�k��,1.2,��
2024/04/30,23:50,0.515,0.781,0.493,0.972,0.702,0.319,0.556,0.519,�k,2.0,��
